Wind_Speed
29 29 30 30 30 30 30 30 30 31 31 31 31 31 31 32 32 32 31 31 31 32 32 32 32 32 32 32 31 31 32 31 31 30 29 29 28 28 27 26 26 26 25
31 31 31 32 32 32 32 32 32 33 33 33 33 34 33 33 34 34 34 33 34 34 34 34 34 34 34 34 33 34 35 35 34 33 33 32 31 31 30 29 29 28 28
33 33 33 34 35 35 35 35 35 35 36 36 36 36 36 36 36 36 36 37 37 37 37 37 37 37 37 37 37 37 38 37 37 36 36 35 35 34 33 32 31 31 30
36 36 35 36 37 37 37 37 38 38 38 38 39 39 39 38 38 39 39 39 40 40 40 40 40 40 40 40 40 40 40 40 40 40 39 38 38 37 36 35 34 34 33
38 39 39 39 39 39 39 40 40 41 40 41 41 41 41 41 41 41 42 42 42 43 43 43 43 43 43 44 44 44 44 44 44 43 43 42 41 41 39 38 37 36 35
40 41 41 42 42 42 41 42 42 42 43 43 43 43 43 44 44 44 44 44 45 45 45 46 46 46 46 46 47 47 47 48 47 46 46 45 44 43 43 41 40 39 38
43 44 44 44 45 45 44 44 44 44 45 45 45 45 45 45 46 46 46 46 47 47 47 48 48 49 49 49 49 49 49 49 49 49 48 48 47 46 45 44 43 42 41
45 45 45 46 46 47 47 47 46 46 46 47 47 47 47 47 47 47 47 47 48 49 50 50 51 52 52 52 52 52 52 51 51 50 51 51 50 48 48 46 45 45 44
47 47 47 47 47 48 48 49 49 49 48 49 49 50 50 49 49 49 49 50 50 51 52 53 53 53 53 54 54 54 54 53 53 52 53 52 52 51 50 50 48 47 46
47 47 48 47 48 48 49 49 50 50 50 50 50 51 52 52 52 52 51 52 52 52 53 54 55 54 54 54 55 55 55 55 55 54 54 54 54 53 53 52 51 49 48
48 48 48 47 48 48 49 50 50 51 52 52 52 52 53 53 53 53 53 53 53 53 54 54 55 56 55 56 56 56 56 56 55 55 55 55 55 54 53 53 53 52 50
48 48 48 49 49 49 49 50 51 51 52 53 53 53 54 55 54 54 54 54 54 54 55 55 56 56 56 56 56 57 57 56 56 56 56 56 56 55 55 55 55 54 53
48 49 49 49 49 50 50 51 51 51 51 52 53 54 55 55 55 55 55 55 55 55 55 55 55 55 55 54 54 55 55 56 57 57 57 56 56 57 57 57 57 57 55
48 49 50 50 50 50 50 51 51 52 52 51 52 53 54 54 54 55 55 55 55 55 54 54 54 54 54 53 52 52 53 54 56 57 58 58 58 58 58 58 58 58 58
49 49 49 50 51 51 51 51 52 52 52 52 52 52 53 53 54 55 56 56 56 55 53 53 54 54 54 54 53 52 52 54 55 57 58 59 59 59 60 60 60 59 59
48 49 49 50 50 51 51 51 51 51 52 51 51 52 53 53 55 56 56 56 56 55 53 53 53 54 54 55 55 54 53 54 56 57 58 59 59 60 60 60 61 60 60
48 49 49 50 51 51 52 51 52 52 52 52 52 52 52 53 54 55 55 55 55 55 54 53 53 53 54 54 55 55 55 56 57 57 57 58 58 58 59 59 59 60 60
48 49 50 50 51 51 51 51 51 52 52 52 52 51 52 53 53 54 54 54 54 54 54 52 52 53 53 54 55 55 54 55 56 56 57 57 58 58 58 58 59 59 60
49 50 50 51 51 51 51 50 51 52 52 52 52 52 52 52 52 52 53 53 53 53 53 52 52 52 52 53 54 54 53 53 54 54 55 56 58 58 58 59 59 59 59
49 50 50 51 50 50 50 51 51 51 51 52 52 52 52 51 51 52 52 53 53 53 53 52 51 51 51 52 53 53 52 52 51 51 53 55 56 57 57 58 58 58 59
49 49 49 49 49 50 50 50 50 50 50 51 50 51 51 51 51 51 52 52 53 53 53 52 51 50 50 50 51 50 50 50 49 49 50 51 54 54 55 56 57 57 59
48 48 48 48 48 49 49 49 49 49 49 49 49 49 50 51 51 51 51 52 53 53 52 51 51 50 50 50 49 49 49 48 48 49 50 50 51 51 52 55 56 56 57
47 47 47 47 47 47 47 47 48 48 47 47 47 47 48 49 50 50 50 50 51 51 52 51 51 50 50 50 49 48 48 48 47 48 49 49 51 51 51 53 55 55 56
46 46 46 46 45 46 46 47 47 46 46 47 47 47 47 47 48 48 48 48 49 49 50 49 49 49 49 49 48 48 47 46 47 47 48 48 49 50 51 52 54 55 56
46 45 45 45 45 45 45 46 46 45 45 45 46 46 46 46 47 47 47 46 46 47 48 48 48 48 48 48 48 48 46 45 45 45 47 47 48 49 50 51 51 52 54
45 45 45 45 45 45 45 45 45 45 44 44 44 45 45 44 44 45 46 45 45 46 47 47 48 48 47 47 47 46 46 45 44 44 45 46 47 48 49 49 49 50 52
Wind_Direction
269 268 267 267 268 268 268 267 265 265 266 266 265 265 264 264 263 262 261 261 262 262 263 262 262 262 261 261 262 261 261 260 261 261 261 261 261 260 260 261 260 259 258
268 269 268 268 268 268 268 267 267 266 265 265 266 265 264 264 263 262 262 262 262 262 263 263 262 262 261 261 262 262 261 261 260 261 261 261 260 260 259 260 260 259 259
268 268 268 269 270 269 269 268 269 268 266 265 265 265 264 264 263 262 262 263 263 263 264 264 264 264 263 262 262 263 262 261 261 261 261 261 260 259 259 259 259 259 259
269 269 269 270 270 270 269 269 269 269 268 267 265 264 264 264 264 263 263 263 264 263 264 264 265 265 264 263 262 262 261 261 261 261 260 261 260 259 259 259 258 259 259
269 270 271 271 271 270 270 270 270 269 268 267 265 265 264 264 264 265 265 264 264 264 264 264 264 264 264 263 262 261 261 261 261 260 260 260 259 259 258 258 258 258 258
270 271 271 272 272 271 270 270 270 269 268 267 266 265 265 265 265 265 266 266 265 265 264 263 264 264 263 263 262 261 261 261 261 260 259 258 258 257 257 257 257 257 257
271 272 272 272 272 271 271 270 270 270 269 268 267 266 266 266 266 267 267 266 266 266 266 265 265 264 264 263 263 261 261 261 260 260 259 257 257 256 256 255 255 255 255
272 272 273 273 272 272 271 271 270 270 270 269 268 267 266 266 266 267 267 266 266 267 267 267 266 265 265 264 263 262 261 260 259 258 258 256 256 256 254 254 254 254 254
272 273 273 274 273 273 272 272 270 269 269 269 269 269 268 266 266 267 267 267 267 267 267 267 267 265 264 263 263 262 261 260 258 257 256 256 256 255 254 253 253 253 253
273 274 274 274 274 274 273 273 271 269 269 269 269 269 269 269 268 268 268 269 268 268 268 268 267 266 265 264 262 261 260 259 258 257 256 255 255 254 253 251 252 251 252
273 274 274 275 275 275 274 273 273 271 271 270 269 269 269 269 270 270 270 269 269 269 269 269 267 266 265 264 262 261 260 259 258 257 256 254 253 252 251 251 250 250 250
272 273 274 275 275 275 274 274 274 273 272 271 270 270 269 270 270 270 270 270 270 270 269 269 268 266 265 264 262 261 260 259 257 256 255 254 252 250 249 250 250 249 249
273 274 274 275 275 275 275 274 274 274 274 272 271 270 269 270 271 271 271 270 270 270 269 268 267 266 265 264 262 262 260 259 257 256 255 253 251 250 249 249 249 249 248
274 275 276 276 275 276 276 275 275 274 274 273 273 271 270 270 270 271 271 271 271 270 268 267 266 265 264 263 262 262 260 259 256 256 255 253 252 251 250 249 249 249 247
275 276 276 275 275 275 276 275 275 274 274 274 273 272 272 271 270 271 271 272 271 269 266 265 265 264 264 263 262 262 261 259 257 256 255 253 252 251 250 250 249 249 247
275 276 276 276 276 275 275 275 275 275 275 275 274 273 272 272 271 271 271 271 270 268 265 264 264 263 263 263 263 262 261 260 259 258 257 254 253 251 250 250 248 248 246
275 276 276 276 276 276 277 276 275 275 275 276 275 274 273 272 272 271 271 271 270 268 267 265 265 264 263 263 263 263 263 262 260 258 257 254 252 250 250 249 248 246 244
276 277 277 277 278 278 277 276 276 276 275 275 275 274 273 272 272 271 270 269 269 268 267 266 265 264 264 264 264 264 263 262 260 258 256 254 251 250 249 248 248 245 245
277 277 278 278 278 278 277 277 276 276 276 275 275 274 274 273 272 271 270 269 268 267 267 267 265 264 264 264 264 264 263 262 260 258 256 254 253 250 249 248 246 245 243
278 278 278 278 278 278 277 278 278 277 277 276 275 274 273 273 272 271 270 269 268 267 266 266 265 264 264 264 264 264 263 261 259 258 257 255 253 251 249 248 246 245 242
280 279 279 278 278 278 278 278 278 278 277 277 276 275 274 273 273 272 271 269 269 267 266 265 264 264 264 264 264 263 262 260 259 258 256 255 253 250 248 246 245 244 244
280 279 279 278 278 279 279 279 279 279 278 278 276 275 274 273 273 272 271 270 269 268 266 265 264 263 263 262 262 262 262 262 260 258 257 255 253 250 247 245 244 244 244
280 280 279 279 279 279 279 280 280 279 278 277 276 276 275 274 273 271 271 270 269 268 266 265 264 263 262 261 261 260 261 262 261 259 257 255 253 249 247 246 244 244 243
281 281 280 279 278 279 279 280 280 280 279 278 277 277 277 275 273 272 271 271 269 268 266 265 265 263 261 260 261 261 261 261 259 258 257 255 252 248 246 245 244 244 242
281 281 280 279 278 278 279 280 280 280 280 279 278 278 277 276 274 273 272 271 269 268 265 263 263 262 260 260 260 261 261 260 260 257 255 253 250 247 246 245 244 244 243
281 281 281 279 278 279 280 280 280 280 281 280 279 278 277 276 274 273 273 271 269 267 264 263 262 261 260 260 260 260 260 260 261 258 255 252 250 247 243 242 243 243 243
Height
5779 5780 5780 5780 5780 5781 5781 5781 5781 5782 5782 5782 5783 5783 5784 5784 5785 5785 5785 5786 5787 5787 5788 5789 5789 5790 5791 5792 5793 5793 5794 5794 5796 5796 5798 5798 5799 5800 5801 5802 5803 5804 5804
5772 5772 5772 5772 5773 5773 5773 5773 5774 5774 5774 5774 5775 5775 5776 5776 5777 5777 5778 5778 5779 5779 5780 5781 5781 5782 5783 5784 5785 5786 5787 5787 5788 5789 5790 5792 5793 5794 5795 5796 5797 5798 5799
5764 5763 5764 5764 5764 5765 5765 5765 5765 5765 5766 5766 5766 5767 5767 5768 5768 5769 5769 5770 5770 5771 5772 5772 5773 5774 5775 5776 5777 5777 5778 5779 5780 5781 5782 5784 5785 5786 5787 5788 5790 5791 5792
5755 5755 5755 5755 5755 5755 5756 5756 5756 5756 5756 5756 5757 5757 5758 5758 5759 5759 5760 5760 5761 5762 5762 5763 5764 5764 5765 5766 5767 5768 5769 5770 5771 5772 5774 5775 5776 5778 5779 5780 5782 5783 5785
5745 5745 5745 5745 5745 5745 5746 5745 5745 5746 5746 5746 5747 5747 5747 5748 5748 5749 5750 5750 5750 5751 5752 5752 5753 5754 5754 5755 5756 5757 5758 5759 5761 5762 5764 5765 5767 5768 5770 5772 5773 5775 5776
5735 5735 5735 5735 5734 5735 5735 5734 5734 5734 5735 5735 5736 5736 5737 5737 5738 5738 5738 5739 5739 5739 5740 5740 5741 5742 5742 5743 5744 5745 5746 5747 5749 5751 5753 5754 5756 5758 5760 5762 5764 5766 5767
5724 5724 5724 5723 5723 5723 5723 5723 5722 5722 5723 5723 5724 5724 5725 5725 5726 5726 5726 5726 5727 5727 5727 5728 5728 5729 5729 5730 5731 5732 5733 5735 5736 5738 5740 5742 5744 5747 5749 5751 5754 5756 5758
5712 5712 5712 5711 5711 5711 5710 5710 5710 5710 5710 5710 5711 5711 5713 5714 5714 5714 5713 5714 5714 5714 5714 5714 5714 5715 5715 5716 5717 5718 5719 5720 5722 5724 5726 5729 5731 5734 5737 5740 5742 5745 5747
5700 5699 5699 5699 5698 5698 5697 5697 5696 5697 5697 5697 5697 5697 5698 5699 5700 5701 5700 5700 5699 5699 5699 5699 5699 5699 5700 5700 5701 5703 5704 5705 5707 5709 5712 5714 5717 5721 5724 5727 5730 5733 5736
5687 5687 5686 5686 5685 5684 5684 5683 5682 5682 5683 5683 5683 5683 5683 5683 5684 5686 5686 5686 5685 5684 5684 5683 5683 5683 5683 5684 5685 5686 5688 5689 5692 5694 5697 5699 5703 5706 5710 5713 5717 5721 5724
5674 5674 5673 5672 5672 5671 5670 5669 5668 5668 5668 5668 5668 5668 5668 5668 5668 5669 5671 5671 5670 5669 5668 5667 5667 5667 5667 5668 5669 5670 5671 5673 5675 5678 5681 5684 5688 5691 5695 5699 5703 5707 5711
5661 5660 5660 5659 5658 5657 5656 5655 5654 5654 5653 5653 5653 5653 5653 5653 5653 5653 5654 5655 5654 5654 5652 5650 5650 5650 5650 5651 5652 5654 5655 5657 5659 5662 5665 5669 5672 5676 5680 5684 5688 5693 5697
5648 5647 5646 5645 5644 5643 5642 5641 5640 5639 5638 5637 5637 5637 5637 5636 5636 5636 5637 5638 5638 5638 5636 5635 5634 5634 5634 5635 5636 5637 5639 5641 5643 5646 5649 5653 5656 5660 5664 5669 5673 5677 5682
5635 5634 5633 5632 5630 5629 5628 5627 5626 5625 5623 5622 5622 5621 5621 5620 5620 5619 5620 5620 5621 5622 5621 5620 5618 5618 5619 5620 5621 5622 5624 5625 5627 5630 5633 5636 5640 5644 5648 5653 5657 5661 5666
5621 5620 5619 5618 5616 5615 5613 5612 5611 5610 5609 5608 5606 5605 5605 5605 5604 5603 5603 5603 5603 5604 5606 5605 5603 5603 5603 5605 5606 5607 5609 5610 5612 5614 5616 5620 5623 5627 5632 5636 5641 5645 5650
5607 5606 5605 5604 5602 5600 5599 5597 5596 5595 5594 5593 5591 5590 5589 5589 5588 5587 5586 5586 5585 5586 5588 5589 5588 5588 5588 5589 5590 5592 5593 5595 5596 5598 5600 5603 5606 5610 5614 5618 5623 5628 5632
5594 5593 5591 5589 5588 5586 5584 5582 5581 5580 5579 5578 5576 5575 5574 5573 5572 5571 5570 5569 5569 5569 5571 5573 5572 5572 5573 5574 5575 5576 5577 5578 5580 5581 5583 5586 5589 5592 5596 5601 5606 5610 5615
5580 5578 5577 5575 5573 5571 5569 5568 5566 5565 5564 5563 5561 5560 5559 5557 5556 5555 5554 5554 5553 5553 5554 5556 5556 5557 5557 5558 5559 5559 5560 5561 5563 5564 5566 5569 5572 5575 5580 5584 5588 5593 5598
5566 5564 5562 5560 5559 5557 5555 5553 5552 5550 5549 5547 5546 5545 5543 5542 5541 5540 5539 5538 5538 5538 5538 5539 5541 5541 5542 5542 5542 5543 5544 5545 5546 5547 5549 5552 5555 5558 5562 5567 5571 5575 5580
5552 5550 5548 5546 5544 5542 5541 5539 5537 5535 5534 5532 5530 5529 5528 5526 5525 5524 5523 5523 5522 5522 5522 5523 5525 5526 5526 5526 5526 5527 5528 5529 5530 5531 5533 5535 5538 5542 5546 5550 5555 5559 5564
5538 5536 5534 5532 5530 5528 5526 5524 5522 5521 5519 5517 5515 5514 5512 5511 5510 5508 5507 5507 5507 5507 5507 5508 5509 5510 5510 5510 5511 5511 5513 5514 5516 5516 5518 5521 5523 5527 5529 5533 5537 5542 5548
5524 5522 5520 5518 5516 5514 5512 5509 5507 5506 5504 5502 5500 5498 5497 5495 5494 5493 5492 5491 5491 5491 5492 5492 5494 5494 5495 5496 5496 5497 5498 5500 5502 5504 5503 5505 5507 5510 5514 5518 5522 5527 5532
5510 5508 5506 5504 5502 5500 5497 5495 5492 5490 5489 5487 5485 5483 5482 5480 5478 5477 5476 5475 5475 5475 5476 5477 5478 5479 5480 5482 5482 5484 5484 5485 5487 5488 5488 5491 5493 5496 5500 5504 5508 5512 5516
5497 5495 5492 5490 5488 5486 5483 5481 5479 5476 5474 5472 5470 5469 5467 5465 5463 5462 5462 5461 5460 5460 5461 5462 5464 5465 5465 5466 5467 5469 5470 5472 5473 5473 5473 5476 5479 5482 5486 5490 5493 5497 5501
5484 5481 5479 5477 5475 5472 5470 5467 5465 5463 5461 5459 5456 5454 5452 5451 5449 5448 5447 5447 5447 5446 5446 5446 5448 5449 5451 5452 5453 5454 5456 5457 5459 5460 5460 5462 5466 5469 5473 5476 5480 5483 5487
5470 5468 5466 5463 5461 5459 5457 5454 5451 5449 5447 5445 5443 5440 5438 5437 5435 5433 5432 5432 5432 5432 5432 5432 5434 5435 5437 5438 5439 5440 5442 5443 5445 5447 5448 5449 5452 5454 5459 5464 5467 5470 5473